Grimsby

*Note: All times are displayed in the local standard time of the station location.
**Rain - Equipment is designed to accurately record liquid precipitation; under conditions when precipitation is not in liquid form, the data displayed may not properly reflect rainfall values.

Date Max Temp
(°C)
Min Temp
(°C)
Avg Temp
(°C)
Rain (mm) Avg RH (%)
Mon, Dec 11, 2017 -2.9 -5.3 -4.4 0.0 96.4
Sun, Dec 10, 2017 -2.3 -4.1 -3.2 0.0 92.2
Sat, Dec 09, 2017 0.9 -4.4 -1.4 0.0 80.3
Fri, Dec 08, 2017 -0.9 -5.2 -2.6 0.0 79.0
Thu, Dec 07, 2017 0.2 -4.3 -1.8 0.0 82.4
Wed, Dec 06, 2017 2.7 -2.3 0.3 0.0 70.3
Tue, Dec 05, 2017 10.7 -0.4 6.7 6.6 89.2
DateTime Avg Temp (°C) Rain (mm) RH (%)
Tue, Dec 12, 2017 02:00 -4.0 0.0 100.0
Tue, Dec 12, 2017 01:00 -4.3 0.0 100.0
Tue, Dec 12, 2017 00:00 -4.6 0.0 100.0
Mon, Dec 11, 2017 23:00 -4.8 0.0 100.0
Mon, Dec 11, 2017 22:00 -4.8 0.0 100.0
Mon, Dec 11, 2017 21:00 -4.8 0.0 100.0
Mon, Dec 11, 2017 20:00 -5.2 0.0 100.0
Mon, Dec 11, 2017 19:00 -5.3 0.0 100.0
Mon, Dec 11, 2017 18:00 -5.1 0.0 100.0
Mon, Dec 11, 2017 17:00 -4.9 0.0 100.0
Mon, Dec 11, 2017 16:00 -4.2 0.0 95.0
Mon, Dec 11, 2017 15:00 -3.5 0.0 82.5
Mon, Dec 11, 2017 14:00 -3.4 0.0 86.3
Mon, Dec 11, 2017 13:00 -3.5 0.0 93.8
Mon, Dec 11, 2017 12:00 -3.7 0.0 95.5
Mon, Dec 11, 2017 11:00 -3.7 0.0 93.8
Mon, Dec 11, 2017 10:00 -4.0 0.0 93.3
Mon, Dec 11, 2017 09:00 -4.8 0.0 98.5
Mon, Dec 11, 2017 08:00 -5.1 0.0 94.8
Mon, Dec 11, 2017 07:00 -4.9 0.0 93.0
Mon, Dec 11, 2017 06:00 -4.7 0.0 97.3
Mon, Dec 11, 2017 05:00 -4.3 0.0 95.5
Mon, Dec 11, 2017 04:00 -4.5 0.0 96.8
Mon, Dec 11, 2017 03:00 -4.6 0.0 100.0
Mon, Dec 11, 2017 02:00 -3.6 0.0 100.0
Mon, Dec 11, 2017 01:00 -3.2 0.0 97.5
Mon, Dec 11, 2017 00:00 -3.1 0.0 93.5
Sun, Dec 10, 2017 23:00 -3.5 0.0 95.0
Sun, Dec 10, 2017 22:00 -3.6 0.0 93.5
Sun, Dec 10, 2017 21:00 -3.5 0.0 93.0
Sun, Dec 10, 2017 20:00 -3.5 0.0 91.3
Sun, Dec 10, 2017 19:00 -3.4 0.0 93.5
Sun, Dec 10, 2017 18:00 -3.2 0.0 92.5
Sun, Dec 10, 2017 17:00 -2.5 0.0 83.8
Sun, Dec 10, 2017 16:00 -2.4 0.0 86.5
Sun, Dec 10, 2017 15:00 -2.4 0.0 87.3
Sun, Dec 10, 2017 14:00 -2.4 0.0 87.0
Sun, Dec 10, 2017 13:00 -2.6 0.0 90.0
Sun, Dec 10, 2017 12:00 -2.7 0.0 87.8
Sun, Dec 10, 2017 11:00 -2.9 0.0 83.8
Sun, Dec 10, 2017 10:00 -3.4 0.0 86.8
Sun, Dec 10, 2017 09:00 -3.8 0.0 88.3
Sun, Dec 10, 2017 08:00 -4.0 0.0 87.5
Sun, Dec 10, 2017 07:00 -3.7 0.0 94.3
Sun, Dec 10, 2017 06:00 -3.7 0.0 97.3
Sun, Dec 10, 2017 05:00 -3.7 0.0 100.0
Sun, Dec 10, 2017 04:00 -3.3 0.0 100.0
Sun, Dec 10, 2017 03:00 -3.5 0.0 100.0


asterix Register now to access more data! asterix